Home > Weather > Washim > Past weeks

Flag for India Past Weather in Washim, Maharashtra, India — Yesterday and Last 2 Weeks

Now
86 °F

Broken clouds.


Feels Like: 95 °F
Forecast: 75 / 83 °F
Wind: 9 mph from West

Location: Nagpur Sonegaon

Current Time: Jul 2, 2016 at 11:23:44 AM

Latest Report: Jul 2, 2016 at 10:30 AM


Visibility: 3 mi

Pressure: 29.62 "Hg (27.85 "Hg at 546m altitude)

Humidity: 70%

Dew Point: 75 °F

Location of WashimLocation

Past Weather in Washim — Graph

°F

Washim Temperature Yesterday

Maximum temperature yesterday: 95 °F (at 1:30 PM)
Minimum temperature yesterday: 79 °F (at 10:30 PM)
Average temperature yesterday: 86 °F

High & Low Weather Summary for the Past Weeks

 TemperatureHumidityPressure
High102 °F (Jun 17, 2:00 PM)100% (Jun 23, 4:00 AM)29.77 "Hg (Jun 23, 4:00 AM)
Low70 °F (Jun 23, 4:00 AM)15% (Jun 26, 3:30 PM)29.47 "Hg (Jul 1, 3:00 PM)
Average86 °F72%29.61 "Hg
* Reported Jun 17 9:30 AM — Jul 2 10:00 AM, Washim, Weather by CustomWeather, © 2016

Note: Actual official high and low records may vary slightly from our data, if they occured in-between our weather recording intervals... More about our weather records

Advertising

Washim Weather History for the Previous 24 Hours

Scroll right to see more
 ConditionsComfort  
Time TempWeatherWind HumidityBarometerVisibility
10:00 AM
Sat, Jul 2
86 °FBroken clouds.7 mph75%29.62 "Hg2 mi
9:30 AM84 °FBroken clouds.7 mph74%29.62 "Hg2 mi
9:00 AM84 °FBroken clouds.8 mph79%29.62 "Hg2 mi
8:30 AM82 °FBroken clouds.5 mph79%29.62 "Hg2 mi
8:00 AM81 °FBroken clouds.6 mph84%29.59 "Hg2 mi
7:30 AM81 °FBroken clouds.6 mph84%29.59 "Hg2 mi
6:30 AM79 °FBroken clouds.6 mph89%29.56 "Hg2 mi
6:00 AM79 °FLight rain. Partly cloudy.No wind89%29.56 "Hg2 mi
5:30 AM79 °FPartly cloudy.3 mph89%29.56 "Hg2 mi
5:00 AM79 °FPartly cloudy.7 mph89%29.56 "Hg2 mi
4:30 AM79 °FPartly cloudy.No wind94%29.53 "Hg2 mi
4:00 AM79 °FLight rain. Partly cloudy.No wind94%29.53 "Hg2 mi
3:30 AM81 °FLight rain. Partly cloudy.2 mph84%29.56 "Hg2 mi
3:00 AM81 °FLight rain. Partly cloudy.No wind84%29.56 "Hg2 mi
2:30 AM81 °FLight rain. Partly cloudy.No wind89%29.56 "Hg2 mi
2:00 AM81 °FPartly cloudy.No wind84%29.56 "Hg2 mi
1:30 AM79 °FPartly cloudy.No wind89%29.56 "Hg2 mi
12:30 AM79 °FPartly cloudy.3 mph89%29.56 "Hg2 mi
12:00 AM79 °FPartly cloudy.2 mph89%29.56 "Hg2 mi
11:30 PM
Fri, Jul 1
79 °FPartly cloudy.3 mph89%29.59 "Hg2 mi
10:30 PM79 °FLight rain. Partly cloudy.5 mph84%29.62 "Hg2 mi
10:00 PM81 °FPartly cloudy.8 mph79%29.62 "Hg2 mi
9:30 PM81 °FRain. Partly cloudy.6 mph79%29.62 "Hg2 mi
9:00 PM82 °FLight rain. Partly cloudy.7 mph74%29.62 "Hg2 mi
8:30 PM86 °FLight rain. Partly cloudy.No wind84%29.59 "Hg2 mi
8:00 PM86 °FLight rain. Partly cloudy.No wind84%29.59 "Hg2 mi
7:30 PM86 °FLight rain. Partly cloudy.2 mph84%29.59 "Hg2 mi
7:00 PM86 °FBroken clouds.2 mph84%29.53 "Hg2 mi
6:30 PM86 °FThunderstorms. Broken clouds.2 mph84%29.53 "Hg2 mi
6:00 PM86 °FThunderstorms. Broken clouds.3 mph79%29.50 "Hg2 mi
5:30 PM88 °FThunderstorms. Broken clouds.6 mph70%29.50 "Hg3 mi
5:00 PM88 °FThunderstorms. Broken clouds.6 mph70%29.50 "Hg3 mi
4:30 PM90 °FThunderstorms. Broken clouds.13 mph67%29.47 "Hg3 mi
3:30 PM91 °FBroken clouds.8 mph63%29.47 "Hg3 mi
3:00 PM93 °FBroken clouds.13 mph59%29.47 "Hg3 mi
2:30 PM93 °FBroken clouds.9 mph59%29.50 "Hg3 mi
2:00 PM95 °FBroken clouds.12 mph56%29.53 "Hg3 mi
1:30 PM95 °FBroken clouds.13 mph56%29.53 "Hg3 mi
12:30 PM93 °FBroken clouds.12 mph59%29.56 "Hg3 mi
11:30 AM91 °FBroken clouds.9 mph63%29.59 "Hg3 mi
Weather by CustomWeather, © 2016

See weather overviewHow to use our weather pages